Location: Ashton River Estates
(39.1762°N, 77.0261°W)
Time: 00:26:12
(UTC+00:00)

Cosmos 1745 Rocket - Pass Details

Date: 29 October 2020
Orbit: 953 x 997 km, 83.0° (Epoch: 03 December)

Event Time Altitude Azimuth Distance (km) Brightness Sun altitude
Rises 23:23:09 0° 355° (N) 3,697 7.0 -14.7°
Reaches altitude 10° 23:25:42 10° 359° (N) 2,751 6.3 -15.2°
Maximum altitude 23:31:59 66° 81° (E) 1,075 4.0 -16.4°
Drops below altitude 10° 23:38:16 10° 164° (SSE) 2,754 6.2 -17.6°
Sets 23:40:49 0° 167° (SSE) 3,700 6.9 -18.1°
